EHI
0 0 0 0 0 0 0 0 0 0 0 0 0 0 0 0 0 0 0 0 0 0 0 0 0 0 0 0 0 0 0 0 0 0 0 0 0 0
0 0 0 0 0 0 0 0 0 0 0 0 0 0 0 0 0 0 0 0 0 0 0 0 0 0 0 0 0 0 0 0 0 0 0 0 0 0
0 0 0 0 0 0 0 0 0 0 0 0 0 0 0 0 0 0 0 0 0 0 0 0 0 0 0 0 0 0 0 0 0 0 0 0 0 0
0 0 0 0 0 0 0 0 0 0 0 0 0 0 0 0 0 0 0 0 0 0 0 0 0 0 0 0 0 0 0 0 0 0 0 0 0 0
0 0 0 0 0 0 0 0 0 0 0 0 0 0 0 0 0 0 0 0 0 0 0 0 0 0 0 0 0 0 0 0 0 0 0 0 0 0
0 0 0 0 0 0 0 0 0 0 0 0 0 0 0 0 0 0 0 0 0 0 0 0 0 0 0 0 0 0 0 0 0 0 0 0 0 0
0 0 0 0 0 0 0 0 0 0 0 0 0 0 0 0 0 0 0 0 0 0 0 0 0 0 0 0 0 0 0 0 0 0 0 0 0 0
0 0 0 0 0 0 0 0 0 0 0 0 0 0 0 0 0 0 0 0 0 0 0 0 0 0 0 0 0 0 0 0 0 0 0 0 0 0
0 0 0 0 0 0 0 0 0 0 0 0 0 0 0 0 0 0 0 0 0 0 0 0 0 0 0 0 0 0 0 0 0 0 0 0 0 0
0 0 0 0 0 0 0 0 0 0 0 0 0 0 0 0 0 0 0 0 0 0 0 0 0 0 0 0 0 0 0 0 0 0 0 0 0 0
0 0 0 0 0 0 0 0 0 0 0 0 0 0 0 0 0 0 0 0 0 0 0 0 0 0 0 0 0 0 0 0 0 0 0 0 0 0
0 0 0 0 0 0 0 0 0 0 0 0 0 0 0 0 0 0 0 0 0 0 0 0 0 0 0 0 0 0 0 0 0 0 0 0 0 0
0 0 0 0 0 0 0 0 0 0 0 0 0 0 0 0 0 0 0 0 0 0 0 0 0 0 0 0 0 0 0 0 0 0 0 0 0 0
0 0 0 0 0 0 0 0 0 0 0 0 0 0 0 0 0 0 0 0 0 0 0 0 0 0 0 0 0 0 0 0 0 0 0 0 0 0
0 0 0 0 0 0 0 0 0 0 0 0 0 0 0 0 0 0 0 0 0 0 0 0 0 0 0 0 0 0 0 0 0 0 0 0 0 0
0 0 0 0 0 0 0 0 0 0 0 0 0 0 0 0 0 0 0 0 0 0 0 0 0 0 0 0 0 0 0 0 0 0 0 0 0 0
0 0 0 0 0 0 0 0 0 0 0 0 0 0 0 0 0 0 0 0 0 0 0 0 0 0 0 0 0 0 0 0 0 0 0 0 0 0
0 0 0 0 0 0 0 0 0 0 0 0 0 0 0 0 0 0 0 0 0 0 0 0 0 0 0 0 0 0 0 0 0 0 0 0 0 0
0 0 0 0 0 0 0 0 0 0 0 0 0 0 0 0 0 0 0 0 0 0 0 0 0 0 0 0 0 0 0 0 0 0 0 0 0 0
0 0 0 0 0 0 0 0 0 0 0 0 0 0 0 0 0 0 0 0 0 0 0 0 0 0 0 0 0 0 0 0 0 0 0 0 0 0
0 0 0 0 0 0 0 0 0 0 0 0 0 0 0 0 0 0 0 0 0 0 0 0 0 0 0 0 0 0 0 0 0 0 0 0 0 0
0 0 0 0 0 0 0 0 0 0 0 0 0 0 0 0 0 0 0 0 0 0 0 0 0 0 0 0 0 0 0 0 0 0 0 0 0 0
0 0 0 0 0 0 0 0 0 0 0 0 0 0 0 0 0 0 0 0 0 0 0 0 0 0 0 0 0 0 0 0 0 0 0 0 0 0
Wind_Speed
4 3 3 2 2 2 3 3 4 3 4 3 2 2 2 2 3 2 2 4 4 5 5 4 4 4 4 5 5 5 5 5 5 5 5 6 7 8
3 3 3 2 2 2 3 2 3 4 4 3 3 2 2 2 3 2 3 5 5 5 5 5 5 5 5 5 5 5 5 5 6 6 6 7 8 8
4 4 4 3 3 3 2 2 3 3 3 2 1 1 2 2 2 2 2 3 3 5 5 5 5 5 5 5 5 5 5 6 6 6 7 7 8 8
5 5 5 3 4 3 3 4 3 3 4 4 2 2 3 3 2 2 2 2 2 5 6 6 5 5 5 5 4 5 5 6 6 7 7 8 8 9
5 6 5 5 5 4 4 4 3 3 3 3 3 2 1 2 1 1 1 1 2 3 5 6 5 5 5 4 4 5 5 6 6 7 7 7 7 8
5 5 5 6 6 6 5 5 4 3 3 3 3 2 2 2 2 2 1 1 1 2 3 4 4 4 4 5 5 5 5 6 6 6 6 7 7 7
4 4 5 5 7 6 5 5 5 4 4 4 3 2 2 3 3 2 2 1 1 1 1 1 1 1 2 4 4 4 4 4 5 5 6 6 7 7
4 4 4 5 6 7 8 8 8 6 6 5 4 4 4 4 3 3 2 1 2 1 1 1 1 1 1 1 4 4 3 4 4 5 5 6 7 7
5 4 3 4 4 3 4 5 6 7 7 6 6 5 5 5 4 4 3 3 3 2 1 2 1 2 2 2 4 4 4 4 4 4 5 6 7 7
5 5 5 4 4 4 3 3 3 4 5 4 5 5 4 4 5 5 4 2 0 1 1 1 1 2 2 2 4 4 4 4 4 4 5 6 6 7
3 4 4 4 6 6 4 4 3 2 3 4 4 3 4 4 3 3 3 2 1 1 1 1 1 1 1 1 2 3 3 4 4 5 5 5 6 7
2 3 5 5 5 5 4 5 4 3 3 2 2 1 1 2 3 3 4 3 2 2 2 1 1 0 1 1 1 1 2 3 4 5 6 6 7 4
2 2 3 5 5 5 5 4 5 4 4 4 3 2 2 1 1 1 2 3 3 2 2 2 1 1 1 2 2 1 1 1 2 3 5 7 7 5
3 2 3 5 5 4 3 4 5 3 3 3 3 2 2 1 1 1 1 1 1 2 2 3 2 2 2 1 2 1 1 1 1 2 2 5 6 7
2 3 3 3 3 2 2 3 3 3 3 3 2 2 2 2 2 2 2 2 2 1 0 1 2 2 2 2 2 1 2 2 1 1 2 3 3 3
1 2 2 2 2 2 2 2 2 2 2 2 2 2 2 2 1 1 1 1 1 1 1 0 1 2 2 2 2 3 2 2 2 2 3 3 3 3
3 2 2 2 2 2 2 2 2 2 2 2 2 2 2 2 1 1 1 1 1 0 1 1 1 0 2 2 2 3 2 2 2 2 2 3 3 3
4 3 2 2 2 2 2 2 2 2 2 2 2 2 2 2 1 1 1 1 1 1 1 0 0 1 1 2 4 3 2 2 2 2 2 3 4 3
3 3 2 2 2 2 2 2 1 1 1 2 2 2 2 2 1 1 1 1 1 1 1 1 1 1 0 2 3 3 2 2 2 2 2 3 4 5
3 2 2 2 1 1 1 1 1 1 1 2 2 2 2 2 2 2 2 2 1 1 1 1 1 2 3 2 2 3 4 3 2 3 3 3 4 7
2 2 2 1 1 1 1 1 1 1 1 1 1 1 1 2 2 2 2 2 1 1 2 2 2 2 1 0 1 3 2 4 4 3 3 3 4 4
1 1 1 1 1 1 1 0 0 1 1 1 1 1 2 2 2 2 2 2 2 2 2 2 1 0 1 2 3 3 3 3 4 7 7 6 3 3
1 1 1 1 1 1 1 1 1 1 1 1 2 2 2 2 2 2 2 2 2 2 1 1 1 1 1 2 2 3 4 4 3 3 4 7 9 11
Wind_Direction
197 194 192 190 188 186 177 177 171 202 235 236 236 231 228 221 234 216 238 261 274 281 286 289 293 298 301 303 303 306 311 311 309 306 303 305 305 308
188 190 201 191 186 183 185 194 192 187 220 224 223 222 222 229 236 218 237 260 264 271 279 281 278 279 285 288 292 298 303 303 304 301 303 303 302 305
191 192 203 194 189 191 186 188 200 186 209 236 223 221 206 213 244 240 232 232 249 262 268 272 268 268 273 276 285 292 295 297 300 302 302 302 303 303
201 196 203 197 199 195 193 198 204 199 193 212 214 209 222 211 214 233 253 248 245 262 264 266 266 263 267 269 275 283 288 293 299 301 298 299 300 299
205 203 203 196 205 204 203 203 204 204 191 190 202 199 216 205 203 242 260 259 265 263 266 264 266 266 264 268 275 280 284 288 290 291 294 297 301 302
209 208 206 204 206 205 206 205 198 198 185 182 188 192 201 199 188 203 255 257 272 288 280 276 272 275 279 273 275 280 281 283 287 289 294 297 300 302
209 213 217 218 217 211 208 201 193 195 187 185 189 189 200 190 202 199 226 252 270 254 271 287 283 275 284 282 279 278 282 285 288 295 299 304 306 306
208 214 221 220 226 228 225 217 201 194 194 193 200 204 211 203 194 196 195 204 254 232 196 269 247 262 278 265 271 282 293 295 297 302 303 307 308 307
201 203 214 219 222 214 225 226 220 218 211 200 199 205 201 199 187 197 203 208 230 219 185 256 246 257 271 281 278 287 300 302 305 309 315 314 310 308
201 201 203 206 210 199 192 199 208 217 217 209 198 198 197 191 190 194 190 188 293 260 186 249 263 270 290 289 290 292 305 307 313 318 319 322 324 324
200 201 198 198 211 210 189 189 198 210 214 205 206 203 207 209 194 159 164 170 219 245 227 206 244 298 297 286 292 302 312 314 321 323 322 325 325 327
191 200 210 209 214 215 193 184 194 198 175 162 161 163 163 189 200 179 177 179 183 220 198 177 193 329 300 286 280 316 324 316 322 324 320 318 321 330
192 198 206 217 225 224 208 188 199 186 164 155 146 139 132 138 151 157 177 187 191 221 195 172 186 205 226 272 294 279 282 304 318 316 315 313 315 319
193 193 200 217 223 218 207 188 189 161 134 141 146 153 155 156 135 122 123 119 175 215 201 183 191 191 196 253 275 293 288 273 289 303 309 314 317 316
181 194 191 190 193 183 166 164 150 133 136 146 157 163 156 151 129 107 95 93 70 31 319 189 181 190 200 221 249 262 295 286 267 289 302 305 301 303
119 136 128 112 101 94 101 91 94 119 133 136 133 130 124 126 131 135 139 131 104 27 12 42 182 181 207 228 230 247 240 256 274 291 299 293 289 285
126 105 99 101 102 91 82 83 88 93 100 111 125 129 130 131 131 129 137 127 140 168 338 1 16 258 222 211 232 238 242 251 252 272 288 292 285 281
128 128 130 129 132 130 121 101 91 100 113 124 128 134 142 149 145 122 115 139 161 190 229 271 15 10 1 303 230 232 245 251 263 268 264 275 283 283
105 112 121 126 128 130 129 124 122 112 117 123 125 127 136 142 140 142 146 144 171 203 235 237 216 155 240 288 292 235 231 258 277 278 260 252 270 284
83 94 98 103 108 121 131 135 133 122 120 122 127 137 148 152 157 165 171 176 191 212 241 247 222 209 212 236 273 286 260 242 245 263 269 274 273 284
81 82 85 90 95 97 108 142 153 150 138 134 144 153 160 160 171 179 181 199 198 197 227 251 253 277 291 92 277 280 280 265 264 257 263 282 290 293
88 95 95 93 101 116 120 118 144 161 163 169 176 178 177 176 183 188 189 192 202 209 227 250 269 276 190 212 242 267 287 301 298 294 278 261 255 263
110 114 119 120 116 108 132 160 182 212 200 190 192 190 186 190 196 194 196 197 198 206 215 243 259 241 232 227 238 260 276 288 296 302 290 289 283 279